Skip Page Navigation
NASA JPL Caltech
NASA Logo - Jet Propulsion Laboratory + View the NASA Portal
+ Center for Near-Earth Object Studies
JPL Home Earth Solar System Stars & Galaxies Technology
JPL Solar System Dynamics
BODIES ORBITS EPHEMERIDES TOOLS PHYSICAL DATA DISCOVERY FAQ SITE MAP
JPL Small-Body Database Browser
Search: [ help ]  
86741 (2000 GW52)
Classification: Main-belt Asteroid          SPK-ID: 2086741
Ephemeris | Orbit Diagram | Orbital Elements | Mission Design | Physical Parameters | Discovery Circumstances ]

[ show orbit diagram ]
Orbital Elements at Epoch 2459000.5 (2020-May-31.0) TDB
Reference: JPL 27 (heliocentric ecliptic J2000)
 Element Value Uncertainty (1-sigma)   Units 
e .0778928994396466 3.6124e-08  
a 2.32679855017871 1.0021e-08 au
q 2.145557464693324 8.3349e-08 au
i 4.287801309694396 5.3241e-06 deg
node 7.798913361056199 4.9931e-05 deg
peri 251.4320454468058 6.2313e-05 deg
M 195.4098843509675 3.9602e-05 deg
tp 2459593.203993292983
(2022-Jan-13.70399329)
0.00014379 TDB
period 1296.39277999212
3.55
8.3748e-06
2.293e-08
d
yr
n .2776936169007267 1.7939e-09 deg/d
Q 2.508039635664096 1.0801e-08 au
  Orbit Determination Parameters
   # obs. used (total)      977  
   data-arc span      7234 days (19.81 yr)  
   first obs. used      2000-04-05  
   last obs. used      2020-01-25  
   planetary ephem.      DE431  
   SB-pert. ephem.      SB431-N16  
   condition code      0  
   norm. resid. RMS      .52994  
   source      ORB  
   producer      Otto Matic  
   solution date      2020-Feb-23 20:54:24  

Additional Information
 Earth MOID = 1.13517 au 
 Jupiter MOID = 2.52643 au 
 T_jup = 3.566 
[ show covariance matrix ]

Ephemeris | Orbit Diagram | Orbital Elements | Mission Design | Physical Parameters | Discovery Circumstances ]

Physical Parameter Table
Parameter Symbol Value Units Sigma Reference Notes
absolute magnitude H 15.6   n/a MPO348049  
diameter diameter 2.094 km 0.366 urn:nasa:pds:neowise_diameters_albedos::2.0[mainbelt] (http://adsabs.harvard.edu/abs/2011ApJ...741...68M)  
geometric albedo albedo 0.306   0.088 urn:nasa:pds:neowise_diameters_albedos::2.0[mainbelt] (http://adsabs.harvard.edu/abs/2011ApJ...741...68M)  

86741 (2000 GW52)          Discovered 2000-Apr-05 by LINEAR at Socorro
Reference: 20040830/Numbers.arcLast Updated: 2004-09-06

Alternate Designations
 2000 GW52 = 2001 QW85 
Ephemeris | Orbit Diagram | Orbital Elements | Mission Design | Physical Parameters | Discovery Circumstances ]
ABOUT SSD CREDITS/AWARDS PRIVACY/COPYRIGHT GLOSSARY LINKS
FirstGov 2020-Sep-30 01:03 UT
(server date/time)  
NASA Home Page
Site Manager:   Ryan S. Park
Webmaster  Alan B. Chamberlin